Location: *
(58.4167°N, 22.5000°E)
Time: 00:34:50
(UTC+00:00)

Cosmos 1733 - Pass Details

Date: 22 September 2019
Orbit: 507 x 522 km, 82.5° (Epoch: 12 October)

Event Time Altitude Azimuth Distance (km) Brightness Sun altitude
Exits shadow 19:39:05 29° 233° (SW) 955 4.5 -23.1°
Maximum altitude 19:40:37 47° 289° (WNW) 687 4.1 -23.3°
Drops below altitude 10° 19:44:22 10° 5° (N) 1,755 6.4 -23.6°
Sets 19:46:34 0° 11° (N) 2,650 7.3 -23.8°
